| time (UTC) | temp C | wind direction | speed KPH | gust KPH | rain 1hr cm | rain 24hr cm | rain mn cm | humidity % | barometer mb |
| 20260504011545 | 22 | 328 | 1.6 | 12.9 | 0.00 | 0.00 | 0.00 | 32 | 1015.7 |
| 20260504010544 | 22 | 7 | 1.6 | 12.9 | 0.00 | 0.00 | 0.00 | 33 | 1015.7 |
| 20260504005512 | 22 | 10 | 1.6 | 9.7 | 0.00 | 0.00 | 0.00 | 34 | 1016.0 |
| 20260504004511 | 22 | 7 | 3.2 | 6.4 | 0.00 | 0.00 | 0.00 | 34 | 1016.0 |
| 20260504003510 | 22 | 8 | 3.2 | 4.8 | 0.00 | 0.00 | 0.00 | 34 | 1016.0 |
| 20260504002508 | 22 | 13 | 3.2 | 4.8 | 0.00 | 0.00 | 0.00 | 33 | 1016.0 |
| 20260504001508 | 22 | 11 | 3.2 | 8.0 | 0.00 | 0.00 | 0.00 | 32 | 1016.1 |
| 20260504000436 | 22 | 5 | 3.2 | 6.4 | 0.00 | 0.00 | 0.00 | 33 | 1016.1 |
| 20260503235301 | 22 | 21 | 3.2 | 14.5 | 0.00 | 0.00 | 0.00 | 34 | 1016.4 |
| 20260503234300 | 22 | 20 | 8.0 | 14.5 | 0.00 | 0.00 | 0.00 | 38 | 1016.2 |
| 20260503233228 | 22 | 29 | 1.6 | 6.4 | 0.00 | 0.00 | 0.00 | 39 | 1016.7 |
| 20260503232226 | 22 | 23 | 1.6 | 6.4 | 0.00 | 0.00 | 0.00 | 36 | 1016.4 |
| 20260503231225 | 22 | 33 | 1.6 | 6.4 | 0.00 | 0.00 | 0.00 | 36 | 1016.7 |
| 20260503230224 | 23 | 10 | 1.6 | 11.3 | 0.00 | 0.00 | 0.00 | 37 | 1016.8 |
| 20260503225223 | 23 | 11 | 3.2 | 11.3 | 0.00 | 0.00 | 0.00 | 36 | 1016.9 |
| 20260503224222 | 23 | 280 | 3.2 | 11.3 | 0.00 | 0.00 | 0.00 | 33 | 1017.3 |
| 20260503223221 | 22 | 288 | 3.2 | 11.3 | 0.00 | 0.00 | 0.00 | 37 | 1017.2 |
| 20260503222220 | 23 | 318 | 3.2 | 11.3 | 0.00 | 0.00 | 0.00 | 37 | 1017.4 |
| 20260503221218 | 23 | 341 | 1.6 | 8.0 | 0.00 | 0.00 | 0.00 | 33 | 1017.3 |
| 20260503220218 | 23 | 17 | 3.2 | 8.0 | 0.00 | 0.00 | 0.00 | 34 | 1017.8 |
| 20260503215216 | 23 | 315 | 3.2 | 6.4 | 0.00 | 0.00 | 0.00 | 34 | 1017.8 |
| 20260503214214 | 23 | 348 | 3.2 | 6.4 | 0.00 | 0.00 | 0.00 | 33 | 1017.8 |
| 20260503213213 | 23 | 14 | 3.2 | 6.4 | 0.00 | 0.00 | 0.00 | 32 | 1018.0 |
| 20260503212212 | 22 | 10 | 3.2 | 4.8 | 0.00 | 0.00 | 0.00 | 34 | 1018.0 |
| 20260503211211 | 23 | 340 | 1.6 | 9.7 | 0.00 | 0.00 | 0.00 | 31 | 1018.4 |
| 20260503210210 | 23 | 11 | 1.6 | 11.3 | 0.00 | 0.00 | 0.00 | 33 | 1018.5 |
| 20260503205209 | 23 | 338 | 1.6 | 9.7 | 0.00 | 0.00 | 0.00 | 33 | 1019.0 |
| 20260503204208 | 23 | 319 | 1.6 | 9.7 | 0.00 | 0.00 | 0.00 | 34 | 1019.1 |
| 20260503203208 | 23 | 255 | 1.6 | 9.7 | 0.00 | 0.00 | 0.00 | 32 | 1019.0 |
| 20260503202207 | 23 | 295 | 3.2 | 8.0 | 0.00 | 0.00 | 0.00 | 31 | 1019.0 |
| 20260503201206 | 23 | 347 | 3.2 | 8.0 | 0.00 | 0.00 | 0.00 | 35 | 1019.3 |
| 20260503200205 | 23 | 16 | 1.6 | 8.0 | 0.00 | 0.00 | 0.00 | 35 | 1019.3 |
| 20260503195203 | 23 | 332 | 1.6 | 6.4 | 0.00 | 0.00 | 0.00 | 35 | 1019.5 |
| 20260503194131 | 22 | 31 | 1.6 | 6.4 | 0.00 | 0.00 | 0.00 | 35 | 1019.4 |
| 20260503193130 | 22 | 275 | 3.2 | 6.4 | 0.00 | 0.00 | 0.00 | 32 | 1019.4 |
| 20260503192129 | 22 | 110 | 1.6 | 6.4 | 0.00 | 0.00 | 0.00 | 38 | 1019.8 |
| 20260503191128 | 22 | 68 | 1.6 | 6.4 | 0.00 | 0.00 | 0.00 | 36 | 1019.8 |
| 20260503190127 | 22 | 14 | 3.2 | 6.4 | 0.00 | 0.00 | 0.00 | 36 | 1019.8 |
| 20260503185126 | 22 | 32 | 1.6 | 6.4 | 0.00 | 0.00 | 0.00 | 40 | 1020.1 |
| 20260503184124 | 22 | 32 | 3.2 | 6.4 | 0.00 | 0.00 | 0.00 | 37 | 1020.1 |
| 20260503183052 | 21 | 107 | 3.2 | 8.0 | 0.00 | 0.00 | 0.00 | 39 | 1020.1 |
| 20260503182052 | 21 | 18 | 4.8 | 8.0 | 0.00 | 0.00 | 0.00 | 39 | 1020.0 |
| 20260503181051 | 21 | 23 | 3.2 | 8.0 | 0.00 | 0.00 | 0.00 | 41 | 1020.4 |
| 20260503180019 | 21 | 54 | 1.6 | 6.4 | 0.00 | 0.00 | 0.00 | 41 | 1020.4 |
| 20260503175018 | 20 | 73 | 1.6 | 6.4 | 0.00 | 0.00 | 0.00 | 41 | 1020.4 |
| 20260503174017 | 21 | 31 | 1.6 | 6.4 | 0.00 | 0.00 | 0.00 | 41 | 1020.7 |
| 20260503173016 | 20 | 34 | 3.2 | 6.4 | 0.00 | 0.00 | 0.00 | 45 | 1020.7 |
| 20260503172016 | 19 | 74 | 0.0 | 4.8 | 0.00 | 0.00 | 0.00 | 48 | 1020.6 |
| 20260503171015 | 18 | 66 | 1.6 | 4.8 | 0.00 | 0.00 | 0.00 | 50 | 1020.3 |
| 20260503150656 | 14 | 24 | 1.6 | 6.4 | 0.00 | 0.00 | 0.00 | 57 | 1019.9 |
| 20260503130541 | 7 | 131 | 3.2 | 4.8 | 0.00 | 0.00 | 0.00 | 75 | 1020.3 |
| 20260503110459 | 8 | 147 | 0.0 | 6.4 | 0.00 | 0.00 | 0.00 | 70 | 1020.9 |
| 20260503090314 | 10 | 218 | 1.6 | 4.8 | 0.00 | 0.00 | 0.00 | 65 | 1020.7 |
| 20260503081205 | 11 | 222 | 3.2 | 8.0 | 0.00 | 0.00 | 0.00 | 61 | 1020.9 |
| 20260503080204 | 10 | 223 | 3.2 | 9.7 | 0.00 | 0.00 | 0.00 | 63 | 1020.5 |
| 20260503072200 | 11 | 163 | 0.0 | 0.0 | 0.00 | 0.00 | 0.00 | 64 | 1020.4 |
| 20260503071159 | 11 | 163 | 0.0 | 0.0 | 0.00 | 0.00 | 0.00 | 63 | 1020.4 |
| 20260503070158 | 11 | 163 | 0.0 | 0.0 | 0.00 | 0.00 | 0.00 | 63 | 1020.3 |
| 20260503060121 | 12 | 163 | 0.0 | 0.0 | 0.00 | 0.00 | 0.00 | 59 | 1020.3 |
| 20260503055121 | 12 | 162 | 0.0 | 0.0 | 0.00 | 0.00 | 0.00 | 59 | 1020.2 |
| 20260503054120 | 12 | 151 | 0.0 | 3.2 | 0.00 | 0.00 | 0.00 | 59 | 1020.2 |
| 20260503053119 | 12 | 152 | 0.0 | 8.0 | 0.00 | 0.00 | 0.00 | 58 | 1020.1 |
| 20260503052118 | 12 | 151 | 3.2 | 8.0 | 0.00 | 0.00 | 0.00 | 57 | 1020.0 |
| 20260503051045 | 12 | 153 | 1.6 | 8.0 | 0.00 | 0.00 | 0.00 | 56 | 1020.0 |
| 20260503050043 | 12 | 153 | 3.2 | 8.0 | 0.00 | 0.00 | 0.00 | 56 | 1019.9 |
| 20260503045042 | 12 | 174 | 1.6 | 4.8 | 0.00 | 0.00 | 0.00 | 55 | 1019.7 |
| 20260503044042 | 12 | 175 | 3.2 | 4.8 | 0.00 | 0.00 | 0.00 | 53 | 1019.7 |
| 20260503043040 | 13 | 178 | 1.6 | 4.8 | 0.00 | 0.00 | 0.00 | 52 | 1019.8 |
| 20260503042039 | 13 | 180 | 1.6 | 4.8 | 0.00 | 0.00 | 0.00 | 50 | 1019.3 |
| 20260503041037 | 13 | 183 | 1.6 | 4.8 | 0.00 | 0.00 | 0.00 | 49 | 1019.2 |
| 20260503040036 | 13 | 184 | 3.2 | 4.8 | 0.00 | 0.00 | 0.00 | 49 | 1019.1 |
| 20260503035004 | 13 | 185 | 1.6 | 4.8 | 0.00 | 0.00 | 0.00 | 49 | 1018.7 |
| 20260503034003 | 13 | 185 | 1.6 | 4.8 | 0.00 | 0.00 | 0.00 | 49 | 1018.7 |
| 20260503033002 | 13 | 194 | 1.6 | 4.8 | 0.00 | 0.00 | 0.00 | 50 | 1018.7 |
| 20260503032000 | 13 | 195 | 1.6 | 4.8 | 0.00 | 0.00 | 0.00 | 51 | 1018.4 |
| 20260503031000 | 14 | 259 | 1.6 | 3.2 | 0.00 | 0.00 | 0.00 | 50 | 1018.5 |
| 20260503025958 | 15 | 259 | 1.6 | 3.2 | 0.00 | 0.00 | 0.00 | 48 | 1018.6 |
| 20260503024926 | 16 | 259 | 1.6 | 3.2 | 0.00 | 0.00 | 0.00 | 48 | 1018.8 |
| 20260503023926 | 17 | 287 | 0.0 | 3.2 | 0.00 | 0.00 | 0.00 | 46 | 1018.7 |
| 20260503022925 | 18 | 287 | 1.6 | 3.2 | 0.00 | 0.00 | 0.00 | 42 | 1019.2 |
| 20260503021923 | 20 | 288 | 0.0 | 1.6 | 0.00 | 0.00 | 0.00 | 42 | 1019.5 |
| 20260503020922 | 21 | 289 | 0.0 | 3.2 | 0.00 | 0.00 | 0.00 | 27 | 1019.2 |
| 20260503015850 | 21 | 288 | 1.6 | 6.4 | 0.00 | 0.00 | 0.00 | 26 | 1019.2 |
| 20260503014848 | 22 | 288 | 1.6 | 6.4 | 0.00 | 0.00 | 0.00 | 25 | 1019.1 |
| 20260503013847 | 22 | 292 | 1.6 | 4.8 | 0.00 | 0.00 | 0.00 | 27 | 1019.0 |
| 20260503012815 | 22 | 340 | 0.0 | 3.2 | 0.00 | 0.00 | 0.00 | 25 | 1018.9 |